Weather History for Pecos, TX

Change the Weather History Date:

Friday, August 29, 2014

  Actual Average Record
Temperature  
Mean Temperature 81 °F -  
Max Temperature 97 °F 94 °F 108 °F (2011)
Min Temperature 66 °F 64 °F 58 °F (1961)
Cooling Degree Days 16    
Growing Degree Days 31 (Base 50)    
Moisture  
Dew Point 57 °F    
Average Humidity 51    
Maximum Humidity 89    
Minimum Humidity 16    
Precipitation  
Precipitation 0.00 in - - ()
Sea Level Pressure  
Sea Level Pressure 29.92 in    
Wind  
Wind Speed 6 mph (NNW)    
Max Wind Speed 17 mph    
Max Gust Speed 21 mph    
Visibility 10 miles    
Events      
Averages and records for this station are not official NWS values.
T = Trace of Precipitation, MM = Missing Value Source: NWS Daily Summary

Daily Weather History Graph

Daily Weather History Graph

Search for Another Location

Airport:

Trip Planner

Search our weather history database for the weather conditions in past years. The results will help you decide how hot, cold, wet, or windy it might be!

Date:

Astronomy

Aug. 29, 2014 Rise Set
Actual Time 7:28 AM CDT 8:21 PM CDT
Civil Twilight 7:03 AM CDT 8:45 PM CDT
Nautical Twilight 6:33 AM CDT 9:15 PM CDT
Astronomical Twilight 6:03 AM CDT 9:45 PM CDT
Moon 11:02 AM CDT (8/29) 10:38 PM CDT (8/29)
Length of Visible Light 13h 42m
Length of Day
12h 53m
Waxing Crescent, 15% of the Moon is Illuminated
Aug 29
Waxing Crescent
Sep 2
First Quarter
Sep 8
Full
Sep 15
Last Quarter
Sep 24
New

Hourly Weather History & Observations

Time (CDT) Temp. Heat Index Dew Point Humidity Pressure Visibility Wind Dir Wind Speed Gust Speed Precip Events Conditions
12:15 AM 75.2 °F - 65.5 °F 72% 29.91 in 10.0 mi East 3.5 mph - N/A   Clear
12:35 AM 74.1 °F - 66.0 °F 76% 29.90 in 10.0 mi Calm Calm - N/A   Clear
12:55 AM 74.5 °F - 65.1 °F 72% 29.90 in 10.0 mi Calm Calm - N/A   Clear
1:15 AM 73.2 °F - 65.5 °F 77% 29.89 in 10.0 mi SSE 3.5 mph - N/A   Clear
1:35 AM 72.7 °F - 64.8 °F 76% 29.89 in 10.0 mi South 5.8 mph - N/A   Clear
1:55 AM 71.6 °F - 64.4 °F 78% 29.89 in 10.0 mi SE 5.8 mph - N/A   Clear
2:15 AM 71.8 °F - 64.6 °F 78% 29.89 in 10.0 mi Calm Calm - N/A   Clear
2:35 AM 71.1 °F - 65.3 °F 82% 29.89 in 10.0 mi WSW 3.5 mph - N/A   Scattered Clouds
2:55 AM 71.8 °F - 64.9 °F 79% 29.88 in 10.0 mi NNE 3.5 mph - N/A   Scattered Clouds
3:35 AM 70.2 °F - 64.6 °F 82% 29.88 in 10.0 mi NNE 4.6 mph - N/A   Clear
3:55 AM 69.8 °F - 65.3 °F 86% 29.88 in 10.0 mi Calm Calm - N/A   Scattered Clouds
4:15 AM 68.9 °F - 65.3 °F 88% 29.88 in 10.0 mi NNW 3.5 mph - N/A   Clear
4:35 AM 68.9 °F - 64.6 °F 86% 29.88 in 10.0 mi Calm Calm - N/A   Clear
4:55 AM 68.9 °F - 64.4 °F 86% 29.88 in 10.0 mi Calm Calm - N/A   Clear
5:15 AM 66.9 °F - 63.5 °F 89% 29.89 in 10.0 mi Calm Calm - N/A   Clear
5:35 AM 67.5 °F - 63.7 °F 88% 29.89 in 10.0 mi NNW 4.6 mph - N/A   Clear
5:55 AM 68.0 °F - 63.7 °F 86% 29.89 in 10.0 mi Calm Calm - N/A   Clear
6:15 AM 67.3 °F - 62.8 °F 85% 29.90 in 10.0 mi NW 5.8 mph - N/A   Clear
6:35 AM 66.9 °F - 62.6 °F 86% 29.90 in 10.0 mi NW 6.9 mph - N/A   Clear
6:55 AM 67.1 °F - 62.2 °F 84% 29.91 in 10.0 mi NW 5.8 mph - N/A   Clear
7:15 AM 67.1 °F - 62.2 °F 84% 29.91 in 10.0 mi NW 5.8 mph - N/A   Clear
7:35 AM 66.7 °F - 61.9 °F 84% 29.92 in 10.0 mi NW 6.9 mph - N/A   Clear
7:55 AM 67.1 °F - 61.9 °F 83% 29.93 in 10.0 mi WNW 8.1 mph - N/A   Clear
8:15 AM 68.2 °F - 61.9 °F 80% 29.95 in 10.0 mi NW 9.2 mph - N/A   Clear
8:35 AM 70.0 °F - 61.9 °F 75% 29.95 in 10.0 mi NW 9.2 mph - N/A   Clear
8:55 AM 72.0 °F - 61.9 °F 70% 29.95 in 10.0 mi NW 9.2 mph - N/A   Clear
9:15 AM 74.3 °F - 57.0 °F 55% 29.96 in 10.0 mi NW 12.7 mph - N/A   Scattered Clouds
9:35 AM 74.5 °F - 55.0 °F 51% 29.97 in 10.0 mi NW 15.0 mph - N/A   Scattered Clouds
9:55 AM 75.4 °F - 55.9 °F 51% 29.97 in 10.0 mi NW 13.8 mph 20.7 mph N/A   Scattered Clouds
10:15 AM 77.0 °F - 57.0 °F 50% 29.98 in 10.0 mi NW 12.7 mph - N/A   Scattered Clouds
10:35 AM 78.1 °F - 57.2 °F 49% 29.98 in 10.0 mi NW 12.7 mph - N/A   Clear
10:55 AM 79.3 °F - 56.3 °F 45% 29.98 in 10.0 mi NW 13.8 mph - N/A   Clear
11:15 AM 80.6 °F 80.7 °F 56.8 °F 44% 29.98 in 10.0 mi NNW 13.8 mph - N/A   Clear
11:35 AM 81.7 °F 81.4 °F 56.3 °F 42% 29.99 in 10.0 mi NW 16.1 mph - N/A   Clear
11:55 AM 82.8 °F 82.0 °F 55.8 °F 39% 29.98 in 10.0 mi WNW 16.1 mph - N/A   Clear
12:15 PM 84.2 °F 82.9 °F 54.9 °F 36% 29.98 in 10.0 mi WNW 15.0 mph - N/A   Clear
12:35 PM 85.6 °F 84.1 °F 54.9 °F 35% 29.97 in 10.0 mi NW 11.5 mph 18.4 mph N/A   Clear
12:55 PM 86.2 °F 84.5 °F 54.5 °F 34% 29.97 in 10.0 mi WNW 11.5 mph - N/A   Clear
1:15 PM 87.8 °F 86.1 °F 55.0 °F 33% 29.96 in 10.0 mi NW 12.7 mph 18.4 mph N/A   Clear
1:35 PM 89.1 °F 87.1 °F 54.7 °F 31% 29.95 in 10.0 mi NNW 10.4 mph - N/A   Clear
1:55 PM 90.0 °F 87.7 °F 53.4 °F 29% 29.95 in 10.0 mi NNW 11.5 mph 17.3 mph N/A   Clear
2:15 PM 90.7 °F 88.3 °F 53.2 °F 28% 29.95 in 10.0 mi WNW 9.2 mph - N/A   Clear
2:35 PM 91.8 °F 89.3 °F 53.2 °F 27% 29.93 in 10.0 mi NNE 4.6 mph - N/A   Clear
2:55 PM 93.0 °F - 52.9 °F 26% 29.93 in 10.0 mi NNW 5.8 mph - N/A   Clear
3:15 PM 93.7 °F - 52.7 °F 25% 29.92 in 10.0 mi North 10.4 mph - N/A   Clear
3:35 PM 94.8 °F - 51.1 °F 23% 29.91 in 10.0 mi NNW 6.9 mph - N/A   Clear
3:55 PM 94.6 °F - 50.9 °F 23% 29.90 in 10.0 mi West 4.6 mph - N/A   Clear
4:15 PM 95.5 °F - 49.8 °F 21% 29.89 in 10.0 mi North 4.6 mph - N/A   Clear
4:35 PM 95.2 °F - 49.3 °F 21% 29.88 in 10.0 mi NW 5.8 mph - N/A   Clear
4:55 PM 95.9 °F - 47.5 °F 19% 29.88 in 10.0 mi Calm Calm - N/A   Scattered Clouds
5:15 PM 96.8 °F - 44.1 °F 16% 29.87 in 10.0 mi NNW 4.6 mph - N/A   Scattered Clouds
5:35 PM 95.9 °F - 44.2 °F 17% 29.86 in 10.0 mi WSW 4.6 mph - N/A   Clear
5:55 PM 96.1 °F - 44.8 °F 17% 29.86 in 10.0 mi WNW 4.6 mph - N/A   Clear
6:15 PM 96.8 °F - 44.6 °F 17% 29.86 in 10.0 mi NNW 11.5 mph - N/A   Clear
6:35 PM 95.7 °F - 44.8 °F 17% 29.86 in 10.0 mi West 4.6 mph - N/A   Clear
6:55 PM 95.4 °F - 45.3 °F 18% 29.86 in 10.0 mi NNE 6.9 mph - N/A   Clear
7:15 PM 95.0 °F - 48.2 °F 20% 29.86 in 10.0 mi North 8.1 mph - N/A   Clear
7:35 PM 94.1 °F - 48.4 °F 21% 29.86 in 10.0 mi NNW 10.4 mph - N/A   Clear
7:55 PM 93.2 °F - 50.9 °F 24% 29.86 in 10.0 mi NE 17.3 mph - N/A   Clear
8:15 PM 90.5 °F 88.7 °F 56.3 °F 31% 29.88 in 10.0 mi NE 13.8 mph - N/A   Clear
8:35 PM 89.4 °F 87.7 °F 55.9 °F 32% 29.88 in 10.0 mi ENE 11.5 mph - N/A   Clear
8:55 PM 88.5 °F 86.7 °F 55.4 °F 32% 29.89 in 10.0 mi ENE 9.2 mph - N/A   Clear
9:15 PM 87.3 °F 85.5 °F 54.7 °F 33% 29.90 in 10.0 mi ENE 8.1 mph - N/A   Clear
9:35 PM 86.0 °F 84.5 °F 55.4 °F 35% 29.91 in 10.0 mi ENE 6.9 mph - N/A   Clear
9:55 PM 86.7 °F 85.4 °F 56.8 °F 36% 29.92 in 10.0 mi East 11.5 mph - N/A   Clear
10:15 PM 85.6 °F 85.7 °F 60.6 °F 43% 29.93 in 10.0 mi East 15.0 mph - N/A   Clear
10:35 PM 85.1 °F 85.2 °F 61.2 °F 44% 29.95 in 10.0 mi East 11.5 mph - N/A   Clear
10:55 PM 84.2 °F 84.8 °F 61.7 °F 47% 29.95 in 10.0 mi East 12.7 mph - N/A   Clear
11:15 PM 84.2 °F 84.8 °F 61.9 °F 47% 29.96 in 10.0 mi East 15.0 mph 20.7 mph N/A   Clear
11:35 PM 82.9 °F 83.8 °F 62.4 °F 50% 29.96 in 10.0 mi East 12.7 mph - N/A   Clear
11:55 PM 81.3 °F 82.5 °F 62.6 °F 53% 29.97 in 10.0 mi East 11.5 mph - N/A   Clear